DW4393 Weather Reports


Display with metric or nautical units.
time (UTC)temp
F
wind
direction
speed
MPH
gust
MPH
rain 1hr
in
rain 24hr
in
rain mn
in
humidity
%
barometer
mb
20260506104804 63 216 0.0 1.0 0.00 0.00 0.00 79 1013.2
20260506104303 63 216 0.0 1.0 0.00 0.00 0.00 79 1013.3
20260506103804 63 216 0.0 0.0 0.00 0.00 0.00 79 1013.3
20260506103304 63 216 0.0 1.0 0.00 0.00 0.00 79 1013.2
20260506101803 63 216 1.0 1.0 0.00 0.00 0.00 77 1012.8
20260506101304 63 216 1.0 1.0 0.00 0.00 0.00 77 1012.8
20260506100804 63 216 0.0 0.0 0.00 0.00 0.00 78 1012.7
20260506094804 64 216 0.0 1.0 0.00 0.00 0.00 77 1012.5
20260506093803 64 216 0.0 2.0 0.00 0.00 0.00 79 1012.5
20260506093304 64 216 0.0 1.0 0.00 0.00 0.00 78 1012.9
20260506091304 65 216 1.0 1.0 0.00 0.00 0.00 76 1012.5
20260506090304 65 216 0.0 2.0 0.00 0.00 0.00 76 1012.7
20260506084804 65 216 0.0 1.0 0.00 0.00 0.00 75 1012.6
20260506083804 66 216 0.0 2.0 0.00 0.00 0.00 73 1012.7
20260506083304 66 216 0.0 2.0 0.00 0.00 0.00 73 1012.7
20260506081804 65 216 1.0 1.0 0.00 0.00 0.00 73 1012.8
20260506081304 65 216 1.0 1.0 0.00 0.00 0.00 73 1012.8
20260506080804 65 216 0.0 2.0 0.00 0.00 0.00 73 1012.9
20260506080304 65 216 1.0 2.0 0.00 0.00 0.00 72 1012.9
20260506073304 65 216 0.0 1.0 0.00 0.00 0.00 71 1013.1
20260506071304 63 216 0.0 1.0 0.00 0.00 0.00 75 1013.1
20260506070304 63 216 0.0 0.0 0.00 0.00 0.00 77 1013.2
20260506061304 61 216 0.0 0.0 0.00 0.00 0.00 79 1013.5
20260506060807 61 216 0.0 0.0 0.00 0.00 0.00 80 1013.4
20260506060304 61 216 0.0 0.0 0.00 0.00 0.00 80 1013.4
20260506051304 60 216 0.0 0.0 0.00 0.00 0.00 79 1013.4
20260506050304 61 216 0.0 0.0 0.00 0.00 0.00 79 1013.4
20260506044805 61 216 0.0 0.0 0.00 0.00 0.00 79 1013.7
20260506044304 61 216 0.0 0.0 0.00 0.00 0.00 79 1013.6
20260506043804 61 216 0.0 0.0 0.00 0.00 0.00 80 1013.5
20260506043305 61 216 0.0 0.0 0.00 0.00 0.00 80 1013.7
20260506041804 62 216 0.0 0.0 0.00 0.00 0.00 78 1013.5
20260506041304 62 216 0.0 0.0 0.00 0.00 0.00 78 1013.6
20260506040822 62 216 0.0 0.0 0.00 0.00 0.00 76 1013.8
20260506040305 62 216 0.0 0.0 0.00 0.00 0.00 78 1013.7
20260506034803 62 216 0.0 0.0 0.00 0.00 0.00 75 1014.0
20260506034303 62 216 0.0 0.0 0.00 0.00 0.00 74 1013.9
20260506033804 62 216 0.0 0.0 0.00 0.00 0.00 74 1013.8
20260506033303 63 216 0.0 0.0 0.00 0.00 0.00 74 1013.8
20260506031803 63 216 0.0 0.0 0.00 0.00 0.00 75 1013.8
20260506031303 63 216 0.0 0.0 0.00 0.00 0.00 74 1013.9
20260506030303 63 216 0.0 0.0 0.00 0.00 0.00 74 1013.9
20260506024802 63 216 0.0 0.0 0.00 0.00 0.00 74 1014.0
20260506024303 63 216 0.0 0.0 0.00 0.00 0.00 74 1013.9
20260506023803 63 216 0.0 0.0 0.00 0.00 0.00 73 1013.9
20260506023303 63 216 0.0 0.0 0.00 0.00 0.00 73 1013.8
20260506021303 63 216 0.0 0.0 0.00 0.00 0.00 70 1013.6
20260506020803 63 216 0.0 0.0 0.00 0.00 0.00 70 1013.7
20260506020303 63 216 0.0 0.0 0.00 0.00 0.00 69 1013.8
20260506014803 64 216 0.0 0.0 0.00 0.00 0.00 66 1013.6
20260506014303 65 216 0.0 0.0 0.00 0.00 0.00 66 1013.5
20260506013804 65 216 0.0 0.0 0.00 0.00 0.00 65 1013.5
20260506013303 65 216 0.0 0.0 0.00 0.00 0.00 64 1013.4
20260506011803 67 216 0.0 0.0 0.00 0.00 0.00 63 1013.2
20260506010803 67 216 0.0 0.0 0.00 0.00 0.00 61 1013.3
20260506010303 68 216 0.0 0.0 0.00 0.00 0.00 61 1013.2
20260506004803 69 216 0.0 0.0 0.00 0.00 0.00 56 1013.5
20260506004303 70 216 0.0 0.0 0.00 0.00 0.00 55 1013.4
20260506003803 70 216 0.0 0.0 0.00 0.00 0.00 55 1013.4
20260506003302 71 216 0.0 0.0 0.00 0.00 0.00 55 1013.3
20260506001803 74 216 0.0 0.0 0.00 0.00 0.00 50 1013.1
20260506001303 74 216 1.0 1.0 0.00 0.00 0.00 46 1013.2
20260506000803 75 216 1.0 2.0 0.00 0.00 0.00 46 1013.1
20260505234803 76 188 1.0 2.0 0.00 0.00 0.00 44 1013.1
20260505234303 76 188 1.0 3.0 0.00 0.00 0.00 44 1013.2
20260505233803 76 188 1.0 2.0 0.00 0.00 0.00 45 1013.1
20260505233303 76 191 1.0 2.0 0.00 0.00 0.00 45 1013.1
20260505231803 76 205 1.0 2.0 0.00 0.00 0.00 47 1012.9
20260505231303 77 206 1.0 2.0 0.00 0.00 0.00 48 1013.0
20260505230803 77 214 1.0 2.0 0.00 0.00 0.00 47 1012.9
20260505230303 76 223 1.0 2.0 0.00 0.00 0.00 47 1012.9
20260505224803 77 197 1.0 2.0 0.00 0.00 0.00 44 1012.9
20260505223803 78 217 1.0 3.0 0.00 0.00 0.00 44 1012.8
20260505223303 78 209 2.0 3.0 0.00 0.00 0.00 44 1012.9
20260505221303 78 225 1.0 3.0 0.00 0.00 0.00 42 1012.7
20260505220803 78 211 1.0 2.0 0.00 0.00 0.00 42 1012.9
20260505220303 78 197 1.0 5.0 0.00 0.00 0.00 41 1013.0
20260505214803 79 224 1.0 3.0 0.00 0.00 0.00 41 1013.0
20260505214303 79 200 2.0 3.0 0.00 0.00 0.00 43 1013.1
20260505213803 79 252 1.0 3.0 0.00 0.00 0.00 43 1013.1
20260505213303 79 241 2.0 3.0 0.00 0.00 0.00 42 1013.1
20260505211804 79 226 2.0 3.0 0.00 0.00 0.00 42 1013.1
20260505211303 79 241 2.0 5.0 0.00 0.00 0.00 42 1013.1
20260505210803 79 234 2.0 3.0 0.00 0.00 0.00 43 1013.2
20260505210303 79 219 2.0 3.0 0.00 0.00 0.00 43 1013.2
20260505204803 79 250 2.0 3.0 0.00 0.00 0.00 43 1013.4
20260505204303 79 229 2.0 3.0 0.00 0.00 0.00 42 1013.4
20260505203803 79 243 2.0 5.0 0.00 0.00 0.00 44 1013.4
20260505201303 79 258 1.0 3.0 0.00 0.00 0.00 43 1013.9
20260505200803 80 261 2.0 3.0 0.00 0.00 0.00 42 1014.0
20260505194803 78 249 1.0 3.0 0.00 0.00 0.00 44 1014.1
20260505194304 77 268 2.0 3.0 0.00 0.00 0.00 43 1014.1
20260505193803 78 251 2.0 3.0 0.00 0.00 0.00 45 1014.2
20260505191803 77 247 1.0 3.0 0.00 0.00 0.00 43 1014.4
20260505191303 78 173 1.0 3.0 0.00 0.00 0.00 46 1014.4
20260505190804 78 201 2.0 3.0 0.00 0.00 0.00 44 1014.5
20260505190303 78 239 1.0 5.0 0.00 0.00 0.00 44 1014.5
20260505184804 77 201 1.0 2.0 0.00 0.00 0.00 47 1014.8
20260505184303 77 195 2.0 6.0 0.00 0.00 0.00 47 1015.1
20260505183804 76 182 1.0 3.0 0.00 0.00 0.00 47 1014.9
20260505183303 76 170 1.0 5.0 0.00 0.00 0.00 46 1015.1
20260505181803 78 250 2.0 5.0 0.00 0.00 0.00 48 1015.4
20260505181303 77 220 2.0 3.0 0.00 0.00 0.00 46 1015.4
20260505180803 76 183 2.0 3.0 0.00 0.00 0.00 45 1015.4
20260505180304 77 171 2.0 3.0 0.00 0.00 0.00 46 1015.4
20260505174803 77 257 2.0 6.0 0.00 0.00 0.00 45 1015.8
20260505174304 77 249 2.0 5.0 0.00 0.00 0.00 46 1015.8
20260505173803 77 202 2.0 5.0 0.00 0.00 0.00 46 1015.8
20260505173304 76 229 2.0 6.0 0.00 0.00 0.00 45 1015.9
20260505171804 77 226 3.0 7.0 0.00 0.00 0.00 46 1015.9
20260505171303 76 239 2.0 5.0 0.00 0.00 0.00 44 1015.8
20260505170303 76 241 2.0 6.0 0.00 0.00 0.00 46 1015.8
20260505164804 75 170 1.0 3.0 0.00 0.00 0.00 48 1015.8
20260505164303 75 168 2.0 3.0 0.00 0.00 0.00 47 1015.9
20260505163804 75 184 2.0 5.0 0.00 0.00 0.00 48 1016.1
20260505163303 74 159 2.0 3.0 0.00 0.00 0.00 49 1016.3
20260505161804 74 182 2.0 6.0 0.00 0.00 0.00 50 1016.6
20260505161303 73 173 1.0 3.0 0.00 0.00 0.00 50 1016.5
20260505160804 72 178 2.0 3.0 0.00 0.00 0.00 48 1016.6
20260505160304 73 211 2.0 3.0 0.00 0.00 0.00 53 1016.7
20260505153304 71 223 1.0 3.0 0.00 0.00 0.00 61 1016.6
20260505151304 69 217 1.0 1.0 0.00 0.00 0.00 65 1016.9
20260505150804 68 217 0.0 1.0 0.00 0.00 0.00 66 1016.8
20260505150303 68 248 0.0 3.0 0.00 0.00 0.00 66 1016.6
20260505140304 62 194 0.0 1.0 0.00 0.00 0.00 75 1016.4
20260505130304 54 194 0.0 0.0 0.00 0.00 0.00 90 1015.8
20260505124804 53 194 0.0 0.0 0.00 0.00 0.00 92 1015.8
20260505124303 52 194 0.0 0.0 0.00 0.00 0.00 92 1015.8
20260505123303 51 194 0.0 0.0 0.00 0.00 0.00 93 1015.8
20260505121803 49 194 0.0 0.0 0.00 0.00 0.00 93 1016.0
20260505121304 49 194 0.0 0.0 0.00 0.00 0.00 93 1015.9
20260505120803 48 194 0.0 0.0 0.00 0.00 0.00 93 1015.9
20260505120304 48 194 0.0 0.0 0.00 0.00 0.00 93 1015.8
20260505114804 46 194 0.0 0.0 0.00 0.00 0.00 93 1015.4
20260505114303 46 194 0.0 0.0 0.00 0.00 0.00 93 1015.3
20260505113803 46 194 0.0 0.0 0.00 0.00 0.00 93 1015.2
20260505113304 46 194 0.0 0.0 0.00 0.00 0.00 93 1015.2
20260505111804 45 194 0.0 0.0 0.00 0.00 0.00 93 1015.1
20260505111304 45 194 0.0 0.0 0.00 0.00 0.00 93 1015.1
20260505110804 45 194 0.0 0.0 0.00 0.00 0.00 93 1015.1
20260505110304 45 194 0.0 0.0 0.00 0.00 0.00 93 1015.1